Date String (YYYY-MM-DD hh:mm:ss) UTC,Instrument flags,Ambient pressure (hPa),Sample flow (lpm),Bypass flow (lpm),Sample temperature (°C),Ambient temperature (°C),ASC tube jacket temperature (°C),LED temperature (°C),Box temperature (°C),Sample RH (%),Span deviation,Mass concentration (μg/m³),Mass concentration (μg/m³),Mass concentration (μg/m³)
DateTimeUTC,F1_M11,P_M11,Q1_M11,Q2_M11,T1_M11,T2_M11,T3_M11,T4_M11,T5_M11,U1_M11,ZSPAN_M11,X0_M11,X2_M11,X1_M11
2022-03-26 07:00:00,,0825.6,4.99,0.00,28.0,27.0,00.0,37.1,29.7,13.0,0000.0,0015.76,0005.17,0003.44
2022-03-26 07:01:00,,0825.6,5.01,0.00,28.0,27.0,00.0,37.1,29.7,13.0,0000.0,0014.82,0005.22,0003.46
2022-03-26 07:02:00,,0825.6,5.00,0.00,28.0,27.0,00.0,37.1,29.7,13.1,0000.0,0015.14,0005.27,0003.47
2022-03-26 07:03:00,,0825.5,4.99,0.00,28.0,27.0,00.0,37.1,29.7,13.1,0000.0,0015.40,0005.31,0003.47
2022-03-26 07:04:00,,0825.5,5.00,0.00,28.0,27.0,00.0,37.1,29.7,13.1,0000.0,0015.51,0005.31,0003.46
2022-03-26 07:05:00,,0825.5,4.99,0.00,28.0,27.0,00.0,37.0,29.7,13.1,0000.0,0015.80,0005.27,0003.46
2022-03-26 07:06:00,,0825.5,5.00,0.00,27.9,27.0,00.0,37.0,29.7,13.2,0000.0,0015.68,0005.25,0003.46
2022-03-26 07:07:00,,0825.5,5.01,0.00,27.9,27.0,00.0,37.0,29.7,13.3,0000.0,0015.40,0005.18,0003.43
2022-03-26 07:08:00,,0825.5,5.01,0.00,27.9,27.0,00.0,37.0,29.7,13.3,0000.0,0016.22,0005.11,0003.41
2022-03-26 07:09:00,,0825.5,5.00,0.00,27.9,26.9,00.0,37.0,29.7,13.3,0000.0,0016.40,0005.00,0003.38
2022-03-26 07:10:00,,0825.6,5.00,0.00,27.9,27.0,00.0,37.0,29.7,13.3,0000.0,0016.17,0004.94,0003.35
2022-03-26 07:11:00,,0825.6,5.00,0.00,27.9,26.9,00.0,37.0,29.7,13.2,0000.0,0015.55,0004.87,0003.32
2022-03-26 07:12:00,,0825.5,5.00,0.00,27.9,26.9,00.0,37.0,29.7,13.2,0000.0,0015.08,0004.85,0003.29
2022-03-26 07:13:00,,0825.6,5.00,0.00,27.9,26.9,00.0,37.0,29.6,13.2,0000.0,0014.75,0004.80,0003.27
2022-03-26 07:14:00,,0825.5,5.01,0.00,27.9,26.9,00.0,37.0,29.6,13.2,0000.0,0014.57,0004.77,0003.25
2022-03-26 07:15:00,,0825.5,5.00,0.00,27.9,26.9,00.0,37.0,29.6,13.2,0000.0,0014.19,0004.68,0003.23
2022-03-26 07:16:00,,0825.5,5.00,0.00,27.9,26.9,00.0,36.9,29.6,13.2,0000.0,0014.70,0004.73,0003.22
2022-03-26 07:17:00,,0825.5,4.99,0.00,27.9,26.9,00.0,36.9,29.6,13.3,0000.0,0014.63,0004.74,0003.21
2022-03-26 07:18:00,,0825.6,5.00,0.00,27.9,26.9,00.0,36.9,29.6,13.3,0000.0,0014.37,0004.76,0003.21
2022-03-26 07:19:00,,0825.5,5.01,0.00,27.9,26.9,00.0,36.9,29.6,13.3,0000.0,0013.52,0004.82,0003.20
2022-03-26 07:20:00,,0825.6,5.01,0.00,27.9,26.9,00.0,36.9,29.6,13.3,0000.0,0013.31,0004.83,0003.18
2022-03-26 07:21:00,,0825.6,4.99,0.00,27.9,26.9,00.0,36.9,29.7,13.3,0000.0,0014.35,0004.74,0003.15
2022-03-26 07:22:00,,0825.6,5.01,0.00,27.9,26.9,00.0,36.9,29.7,13.2,0000.0,0014.49,0004.75,0003.14
2022-03-26 07:23:00,,0825.6,4.99,0.00,27.9,26.9,00.0,36.9,29.6,13.2,0000.0,0014.28,0004.65,0003.13
2022-03-26 07:24:00,,0825.5,4.99,0.00,27.9,26.9,00.0,36.9,29.6,13.2,0000.0,0013.97,0004.64,0003.11
2022-03-26 07:25:00,,0825.6,4.99,0.00,27.9,26.9,00.0,36.9,29.6,13.3,0000.0,0013.64,0004.64,0003.10
2022-03-26 07:26:00,,0825.6,5.02,0.00,27.9,26.9,00.0,36.9,29.7,13.2,0000.0,0014.35,0004.67,0003.09
2022-03-26 07:27:00,,0825.6,5.01,0.00,27.9,26.9,00.0,36.9,29.6,13.2,0000.0,0013.22,0004.62,0003.07
2022-03-26 07:28:00,,0825.6,5.00,0.00,27.9,26.9,00.0,36.9,29.6,13.2,0000.0,0013.33,0004.66,0003.11
2022-03-26 07:29:00,,0825.6,5.00,0.00,27.8,26.8,00.0,36.9,29.6,13.2,0000.0,0013.80,0004.71,0003.13
2022-03-26 07:30:00,,0825.6,4.99,0.00,27.8,26.8,00.0,36.9,29.6,13.2,0000.0,0013.59,0004.72,0003.14
2022-03-26 07:31:00,,0825.5,5.00,0.00,27.8,26.8,00.0,36.9,29.6,13.2,0000.0,0013.27,0004.74,0003.16
2022-03-26 07:32:00,,0825.5,5.02,0.00,27.8,26.8,00.0,36.9,29.6,13.3,0000.0,0012.36,0004.80,0003.20
2022-03-26 07:33:00,,0825.6,4.99,0.00,27.8,26.8,00.0,36.9,29.6,13.3,0000.0,0012.55,0004.81,0003.22
2022-03-26 07:34:00,,0825.6,5.00,0.00,27.8,26.8,00.0,36.9,29.6,13.2,0000.0,0013.08,0004.89,0003.23
2022-03-26 07:35:00,,0825.5,5.02,0.00,27.8,26.8,00.0,36.8,29.5,13.3,0000.0,0013.45,0004.93,0003.25
2022-03-26 07:36:00,,0825.6,4.99,0.00,27.8,26.7,00.0,36.8,29.5,13.4,0000.0,0013.96,0004.95,0003.26
2022-03-26 07:37:00,,0825.6,5.00,0.00,27.8,26.7,00.0,36.8,29.5,13.5,0000.0,0013.55,0004.91,0003.27
2022-03-26 07:38:00,,0825.7,5.00,0.00,27.7,26.7,00.0,36.8,29.5,13.4,0000.0,0013.65,0004.92,0003.29
2022-03-26 07:39:00,,0825.7,5.00,0.00,27.7,26.7,00.0,36.8,29.5,13.3,0000.0,0013.70,0004.90,0003.28
2022-03-26 07:40:00,,0825.8,5.00,0.00,27.7,26.7,00.0,36.8,29.5,13.3,0000.0,0013.17,0004.86,0003.28
2022-03-26 07:41:00,,0825.7,5.00,0.00,27.8,26.7,00.0,36.8,29.5,13.3,0000.0,0013.96,0004.87,0003.28
2022-03-26 07:42:00,,0825.6,5.00,0.00,27.7,26.8,00.0,36.8,29.5,13.3,0000.0,0014.08,0004.85,0003.28
2022-03-26 07:43:00,,0825.6,5.00,0.00,27.7,26.7,00.0,36.8,29.5,13.3,0000.0,0014.08,0004.84,0003.27
2022-03-26 07:44:00,,0825.7,5.00,0.00,27.7,26.8,00.0,36.8,29.5,13.3,0000.0,0014.29,0004.86,0003.28
2022-03-26 07:45:00,,0825.7,5.00,0.00,27.7,26.7,00.0,36.8,29.5,13.2,0000.0,0014.11,0004.88,0003.28
2022-03-26 07:46:00,,0825.6,5.01,0.00,27.7,26.7,00.0,36.8,29.5,13.3,0000.0,0014.23,0004.87,0003.27
2022-03-26 07:47:00,,0825.6,4.99,0.00,27.7,26.7,00.0,36.8,29.5,13.3,0000.0,0014.21,0004.90,0003.28
2022-03-26 07:48:00,,0825.6,4.99,0.00,27.7,26.7,00.0,36.7,29.5,13.3,0000.0,0014.16,0004.96,0003.28
2022-03-26 07:49:00,,0825.6,5.01,0.00,27.7,26.7,00.0,36.7,29.5,13.4,0000.0,0014.32,0005.07,0003.29
2022-03-26 07:50:00,,0825.7,5.01,0.00,27.7,26.7,00.0,36.7,29.5,13.4,0000.0,0014.04,0005.08,0003.30
2022-03-26 07:51:00,,0825.7,5.00,0.00,27.7,26.7,00.0,36.7,29.5,13.3,0000.0,0014.18,0005.09,0003.30
2022-03-26 07:52:00,,0825.7,4.99,0.00,27.7,26.7,00.0,36.7,29.5,13.3,0000.0,0013.78,0005.08,0003.31
2022-03-26 07:53:00,,0825.7,5.00,0.00,27.7,26.7,00.0,36.7,29.4,13.4,0000.0,0013.85,0005.12,0003.31
2022-03-26 07:54:00,,0825.6,5.00,0.00,27.7,26.7,00.0,36.7,29.5,13.4,0000.0,0013.97,0005.12,0003.31
2022-03-26 07:55:00,,0825.6,5.02,0.00,27.7,26.7,00.0,36.7,29.4,13.4,0000.0,0013.81,0005.12,0003.31
2022-03-26 07:56:00,,0825.7,4.99,0.00,27.7,26.7,00.0,36.7,29.4,13.3,0000.0,0014.10,0005.10,0003.31
2022-03-26 07:57:00,,0825.9,4.99,0.00,27.7,26.7,00.0,36.7,29.4,13.3,0000.0,0014.65,0005.05,0003.31
2022-03-26 07:58:00,,0825.9,5.00,0.00,27.7,26.7,00.0,36.7,29.5,13.3,0000.0,0014.62,0005.04,0003.31
2022-03-26 07:59:00,,0825.8,5.02,0.00,27.7,26.7,00.0,36.7,29.4,13.4,0000.0,0014.88,0005.00,0003.32
